This is the latest recevied weather packets stored in our database for station/object KC1TLF-15. If no packets are shown the sender has not sent any weather packets the latest 10 day(s).
| Time | Temp. | Humidity | Pressure | Rain* | Wind** | Luminosity | Snow |
|---|---|---|---|---|---|---|---|
| 1777674072 | 15.56° C | 34% | 1017.6 hPa | 0 mm | 0 m/s | - | - |
| 1777673470 | 16.11° C | 33% | 1017.5 hPa | 0 mm | 0.89 m/s, 42° | - | - |
| 1777672871 | 16.11° C | 33% | 1017.2 hPa | 0 mm | 0.45 m/s, 304° | - | - |
| 1777672270 | 16.11° C | 35% | 1017 hPa | 0 mm | 1.79 m/s, 311° | - | - |
| 1777671670 | 16.11° C | 32% | 1016.9 hPa | 0 mm | 1.79 m/s, 280° | - | - |
| 1777671071 | 16.11° C | 33% | 1017.1 hPa | 0 mm | 2.24 m/s, 317° | - | - |
| 1777670470 | 16.11° C | 34% | 1017 hPa | 0 mm | 0.89 m/s, 356° | - | - |
| 1777669870 | 15.56° C | 33% | 1017 hPa | 0 mm | 1.34 m/s, 293° | 114 W/m² | - |
| 1777669271 | 16.11° C | 36% | 1016.7 hPa | 0 mm | 0.45 m/s, 321° | - | - |
| 1777668670 | 16.67° C | 33% | 1016.6 hPa | 0 mm | 0.45 m/s, 342° | 167 W/m² | - |
| 1777668070 | 16.11° C | 35% | 1016.4 hPa | 0 mm | 1.34 m/s, 327° | - | - |
| 1777667471 | 17.22° C | 35% | 1016.8 hPa | 0 mm | 0.89 m/s, 90° | - | - |
| 1777666870 | 15.56° C | 35% | 1016.6 hPa | 0 mm | 1.34 m/s, 293° | 125 W/m² | - |
| 1777666270 | 16.11° C | 34% | 1016.6 hPa | 0 mm | 1.34 m/s, 282° | 178 W/m² | - |
| 1777665672 | 16.11° C | 37% | 1016.5 hPa | 0 mm | 1.34 m/s, 328° | - | - |
| 1777665071 | 16.67° C | 34% | 1016.7 hPa | 0 mm | 3.13 m/s, 323° | 245 W/m² | - |
| 1777664471 | 16.11° C | 34% | 1016.7 hPa | 0 mm | 1.34 m/s, 294° | - | - |
| 1777663871 | 17.22° C | 34% | 1016.8 hPa | 0 mm | 1.34 m/s, 284° | 227 W/m² | - |
| 1777663271 | 16.67° C | 33% | 1016.9 hPa | 0 mm | 0.89 m/s, 322° | 111 W/m² | - |
| 1777662671 | 16.11° C | 37% | 1016.8 hPa | 0 mm | 0.89 m/s, 277° | - | - |
| 1777662070 | 15° C | 36% | 1017 hPa | 0 mm | 0.89 m/s, 279° | - | - |
| 1777661471 | 15° C | 39% | 1016.9 hPa | 0 mm | 2.24 m/s, 307° | - | - |
| 1777660871 | 15.56° C | 40% | 1017 hPa | 0 mm | 2.24 m/s, 342° | 260 W/m² | - |
| 1777660270 | 15.56° C | 37% | 1017.2 hPa | 0 mm | 1.79 m/s, 326° | 635 W/m² | - |
| 1777659670 | 15.56° C | 39% | 1017.3 hPa | 0 mm | 1.79 m/s, 347° | 209 W/m² | - |
* Rain latest hour (hover to see other rain measurements)
** Current wind speed in m/s (hover to see current wind gust speed)